Location: Newark
(58.8333°N, 23.5833°E)
Time: 02:39:31
(UTC+00:00)

Vanguard 2 - Pass Details

Date: 28 November 2019
Orbit: 553 x 2938 km, 32.9° (Epoch: 14 December)

Event Time Altitude Azimuth Distance (km) Brightness Sun altitude
Rises 02:32:06 0° 196° (SSW) 6,704 12.1 -31.1°
Reaches altitude 10° 02:41:35 10° 170° (S) 5,324 11.8 -29.9°
Maximum altitude 02:45:32 11° 155° (SSE) 4,969 11.8 -29.4°
Drops below altitude 10° 02:49:12 10° 140° (SE) 4,836 11.9 -28.9°
Sets 02:56:19 0° 111° (ESE) 5,232 12.7 -28.0°
